Time[GMT],current_u[cm/s](10m),current_v[cm/s](10m),current_u[cm/s](14m),current_v[cm/s](14m),current_u[cm/s](18m),current_v[cm/s](18m),current_u[cm/s](22m),current_v[cm/s](22m),current_u[cm/s](26m),current_v[cm/s](26m),current_u[cm/s](30m),current_v[cm/s](30m),current_u[cm/s](34m),current_v[cm/s](34m),current_u[cm/s](38m),current_v[cm/s](38m),current_u[cm/s](42m),current_v[cm/s](42m),current_u[cm/s](46m),current_v[cm/s](46m),current_u[cm/s](50m),current_v[cm/s](50m),current_u[cm/s](54m),current_v[cm/s](54m),current_u[cm/s](58m),current_v[cm/s](58m),current_u[cm/s](62m),current_v[cm/s](62m),current_u[cm/s](66m),current_v[cm/s](66m),current_u[cm/s](70m),current_v[cm/s](70m),current_u[cm/s](74m),current_v[cm/s](74m),current_u[cm/s](78m),current_v[cm/s](78m),current_u[cm/s](82m),current_v[cm/s](82m),current_u[cm/s](86m),current_v[cm/s](86m),current_u[cm/s](90m),current_v[cm/s](90m)
2005-01-05 01:00,-0.99,-24.46,-2.40,-21.23,-0.80,-15.51,-4.74,-16.30,-5.21,-14.77,-4.65,-12.82,-4.93,-12.59,-7.51,-11.71,-9.69,-9.34,-10.11,-8.32,-9.26,-5.97,-9.15,-5.31,-7.06,-5.30,-5.74,-4.47,-5.09,-6.26,-5.29,-10.40,-7.97,-12.58,-9.10,-13.66,-9.60,-13.39,-9.47,-11.78,-10.70,-10.49
2005-01-05 02:00,4.38,-19.47,3.86,-17.75,4.55,-14.19,1.99,-15.08,1.69,-13.39,-0.36,-11.82,-1.42,-11.42,-3.06,-7.42,-3.90,-4.01,-1.60,-1.95,-1.23,-3.83,-0.03,-3.67,1.25,-4.43,-0.89,-7.70,-0.80,-9.34,-2.04,-10.77,-2.91,-8.94,-1.72,-5.33,-0.93,-4.47,0.94,-3.06,2.59,-2.66
2005-01-05 03:00,2.26,-18.34,3.51,-12.84,5.81,-10.46,2.59,-11.55,0.42,-9.91,-0.60,-8.65,-0.41,-7.55,1.53,-5.70,2.93,-3.08,3.17,-2.17,3.26,-3.81,3.53,-5.72,3.74,-8.48,4.46,-10.14,4.24,-10.10,3.51,-10.12,3.23,-9.89,4.08,-8.90,4.16,-8.14,5.00,-5.06,5.77,-2.11
2005-01-05 04:00,1.21,-17.30,0.73,-13.68,3.16,-7.61,2.34,-8.69,2.68,-6.71,4.29,-5.49,2.04,-4.29,-0.49,-1.82,-1.99,-1.34,-0.36,-1.57,2.27,-0.25,2.95,-1.09,3.13,-3.75,3.93,-6.01,6.21,-7.30,6.61,-6.56,6.38,-5.47,6.92,-5.52,5.61,-5.71,4.42,-4.19,4.05,-2.63
2005-01-05 05:00,5.74,-14.66,5.30,-10.82,12.43,-4.04,5.05,-6.61,6.17,-5.12,7.51,-3.35,7.92,-0.93,6.29,0.98,6.05,1.75,8.51,2.60,9.63,3.05,9.24,2.62,8.32,0.14,9.27,-2.60,12.06,-4.57,12.70,-6.99,12.68,-6.58,13.18,-5.49,12.89,-4.53,12.28,-2.21,10.21,-1.58
2005-01-05 06:00,4.64,-11.76,3.43,-9.51,2.74,-3.14,3.84,-4.68,4.61,-2.77,6.01,-1.19,5.95,0.04,5.85,1.06,7.25,2.95,9.46,5.30,9.15,4.26,8.93,0.54,8.35,-1.32,7.51,-3.35,7.28,-4.67,8.30,-5.93,9.22,-3.14,10.21,-2.94,9.14,-1.18,9.24,0.21,7.89,2.93
2005-01-05 07:00,-3.90,-9.14,-2.75,-6.38,3.40,-4.61,-2.31,-1.33,-0.09,0.29,0.76,1.28,1.31,2.91,1.52,4.96,3.45,5.13,4.18,3.79,2.27,3.52,0.21,3.41,-0.31,2.73,-0.56,1.50,-0.98,0.12,-0.94,0.34,0.04,0.22,0.80,0.45,1.55,1.10,1.36,2.40,2.04,1.88
2005-01-05 08:00,-3.95,-7.59,-3.14,-5.46,0.98,-3.88,-1.42,0.19,0.67,1.56,2.15,3.58,3.45,3.77,4.90,4.84,5.64,6.53,7.13,8.14,7.19,5.55,5.22,2.43,3.30,2.89,2.77,3.25,1.59,1.64,1.06,0.64,1.35,1.04,0.84,0.67,1.33,1.14,1.58,2.36,2.86,1.92
2005-01-05 09:00,-7.70,-11.76,-7.44,-10.54,-0.51,-15.42,-7.13,-5.42,-4.29,-3.40,-2.08,-2.42,-0.55,-1.95,0.08,-0.60,1.54,-0.58,2.51,-1.01,-0.01,-4.08,-2.25,-6.33,-4.51,-7.13,-4.78,-7.63,-4.11,-8.79,-3.86,-8.92,-3.99,-8.85,-4.82,-7.85,-4.77,-7.31,-4.54,-8.08,-3.71,-8.04
2005-01-05 10:00,-6.81,-20.49,-4.86,-17.28,0.13,-19.93,-0.88,-12.50,0.52,-10.93,2.01,-10.68,3.39,-9.73,4.36,-9.12,5.54,-8.55,6.56,-9.81,6.24,-12.21,3.36,-13.72,1.61,-14.15,-0.00,-14.01,-1.04,-13.70,1.46,-13.67,3.92,-13.86,4.47,-13.59,3.45,-14.00,2.73,-12.34,1.43,-11.17
2005-01-05 11:00,-8.80,-19.11,-9.27,-17.89,-5.58,-18.33,-5.63,-9.98,-3.57,-8.51,-1.31,-9.39,-1.36,-10.25,-0.33,-10.56,0.24,-10.70,0.01,-12.34,-1.83,-13.52,-3.32,-13.77,-4.29,-13.34,-4.55,-12.48,-4.31,-11.56,-3.83,-11.42,-4.66,-9.37,-6.45,-7.30,-8.20,-6.69,-7.35,-5.38,-6.99,-4.85
2005-01-05 12:00,-8.57,-12.34,-6.51,-12.55,-2.79,-17.90,-6.69,-8.22,-5.98,-6.43,-4.71,-6.15,-3.77,-6.49,-3.14,-7.86,-3.40,-9.40,-4.43,-10.14,-6.68,-10.30,-6.99,-8.94,-7.25,-9.12,-6.89,-8.59,-6.59,-8.19,-5.51,-7.64,-4.38,-5.52,-4.94,-4.02,-5.64,-3.09,-5.18,-3.57,-4.26,-3.50
2005-01-05 13:00,-0.58,-14.50,0.78,-15.55,3.57,-20.24,1.11,-14.93,0.23,-13.42,0.24,-13.10,0.30,-11.93,2.29,-10.91,2.83,-10.64,0.32,-11.30,-0.95,-10.23,-1.57,-8.53,-1.58,-7.49,-1.84,-6.63,-0.76,-7.76,0.15,-8.01,0.96,-8.28,2.00,-7.23,1.97,-5.77,3.16,-5.20,2.92,-5.80
2005-01-05 14:00,2.20,-20.87,2.86,-20.98,4.55,-20.36,1.74,-19.02,1.20,-17.93,0.67,-17.57,1.47,-17.12,1.57,-16.77,1.08,-16.19,-0.80,-15.51,-3.41,-14.85,-3.35,-13.68,-1.57,-12.30,-0.66,-11.18,0.39,-10.86,0.74,-10.96,0.32,-11.30,0.43,-10.64,0.89,-11.13,0.15,-9.05,0.67,-8.68
2005-01-05 15:00,-2.19,-14.05,-0.72,-12.35,2.97,-13.83,-0.73,-10.26,-1.00,-10.76,-0.01,-10.57,-0.61,-10.64,-1.38,-9.52,-2.01,-8.46,-3.58,-7.79,-4.53,-7.76,-3.89,-6.10,-1.44,-5.88,-0.77,-5.67,-0.04,-5.34,0.32,-4.82,-0.74,-4.41,-0.42,-4.10,-1.38,-3.35,-1.64,-2.49,-1.38,-1.99
2005-01-05 16:00,4.45,-15.58,2.81,-15.35,4.18,-16.40,2.44,-12.43,1.49,-11.05,1.68,-9.94,1.61,-9.02,2.09,-8.88,2.54,-8.64,2.73,-8.26,1.90,-8.94,2.15,-9.07,3.24,-9.57,3.11,-9.50,2.26,-10.81,1.69,-10.99,2.22,-9.99,1.66,-8.17,2.24,-6.64,1.89,-6.53,3.56,-5.50
2005-01-05 17:00,2.50,-5.09,2.43,-5.22,0.42,-9.60,1.18,-3.51,0.94,-3.06,0.61,-2.32,-0.35,-1.26,-1.01,-0.10,-0.68,0.52,0.15,0.88,0.52,0.68,1.72,0.53,1.62,0.18,0.17,0.47,0.60,0.08,1.35,0.73,1.57,0.69,2.41,0.32,1.52,1.20,0.29,2.81,0.26,3.95
2005-01-05 18:00,10.91,-10.05,9.56,-9.73,8.40,-13.12,11.07,-7.49,9.68,-7.71,7.02,-6.53,5.52,-5.74,4.53,-4.89,3.38,-2.84,3.44,-1.67,3.62,-0.88,4.56,-0.91,5.10,-0.95,6.30,-2.15,8.39,-2.14,10.27,-1.78,10.35,-2.38,10.58,-2.10,11.04,-1.23,10.81,-1.50,8.91,-0.41
2005-01-05 19:00,3.89,-2.47,4.37,-2.32,6.97,-9.79,3.59,-0.79,3.08,1.57,0.70,2.51,-1.76,3.02,-2.73,4.50,-2.39,5.75,-1.50,5.61,0.28,4.90,0.26,4.26,0.19,3.82,0.09,3.48,0.42,4.10,0.76,4.00,1.28,4.36,2.28,3.83,2.40,3.77,2.27,3.52,1.56,4.14
2005-01-05 20:00,0.74,-8.24,1.90,-8.94,7.51,-11.92,2.06,-6.06,0.85,-3.82,-0.68,-3.24,-2.38,-2.82,-4.82,-1.68,-5.34,0.36,-4.61,0.37,-3.09,-0.84,-1.25,-0.70,-0.16,-1.20,0.47,-1.53,-0.16,-1.51,-0.87,-1.94,-0.67,-2.92,-1.64,-3.53,-2.29,-4.15,-1.65,-3.85,-1.68,-2.71
2005-01-05 21:00,3.80,-8.67,4.15,-8.46,6.99,-8.84,4.65,-4.96,3.34,-1.70,2.35,0.19,0.68,0.52,-1.45,1.65,-1.29,3.89,0.42,4.10,0.36,2.93,0.46,0.87,1.01,-0.22,2.17,-1.95,2.71,-1.68,2.23,-3.19,1.77,-3.75,1.08,-3.54,0.77,-3.21,1.14,-2.37,2.32,-2.11
2005-01-05 22:00,3.35,-8.91,1.61,-10.07,1.52,-15.22,1.44,-6.77,1.31,-3.26,1.00,-0.53,-0.95,1.07,-2.02,3.88,-1.74,5.01,-0.09,4.05,1.11,2.53,1.35,1.04,2.39,-1.67,1.72,-3.24,1.21,-3.60,0.32,-3.77,0.94,-4.10,-0.67,-2.92,-1.46,-2.75,-1.25,-2.06,1.43,-0.92
2005-01-05 23:00,3.68,-16.13,2.08,-15.36,2.24,-20.33,3.29,-12.48,3.25,-9.25,1.60,-5.58,0.80,-2.27,-1.32,-0.82,-2.20,-0.67,-0.69,-1.15,1.36,-2.72,2.21,-4.14,2.24,-6.64,1.61,-9.02,2.39,-9.52,2.05,-9.10,1.26,-9.24,1.42,-9.08,1.67,-9.22,2.45,-8.35,2.81,-7.82
2005-01-06 00:00,-3.01,-12.74,-1.27,-13.98,3.46,-18.50,-1.66,-10.65,-2.46,-8.38,-2.92,-6.54,-3.56,-4.43,-2.84,-3.38,-1.23,-2.47,-0.56,-3.31,1.91,-3.18,2.35,-4.61,1.07,-7.62,0.79,-9.07,0.79,-9.07,-0.33,-9.20,-2.02,-8.77,-2.51,-9.24,-2.03,-9.09,-0.31,-8.56,0.34,-7.95
2005-01-06 01:00,-0.29,-16.82,-0.31,-17.45,0.59,-18.01,-4.05,-13.79,-4.52,-13.93,-5.06,-11.48,-6.04,-8.64,-5.41,-7.61,-3.23,-7.57,-1.60,-8.12,-0.50,-9.67,-2.45,-10.79,-2.72,-12.65,-2.44,-12.88,-2.93,-13.34,-3.26,-12.60,-4.21,-11.54,-5.60,-10.08,-5.32,-9.26,-5.13,-8.89,-3.10,-8.68
2005-01-06 02:00,1.15,-11.99,-0.19,-11.35,-2.69,-15.15,0.53,-10.29,1.03,-10.56,0.50,-9.15,-0.02,-8.48,0.18,-7.79,0.27,-6.71,0.93,-7.14,0.51,-7.48,0.18,-8.10,0.23,-8.61,-0.09,-7.56,0.51,-8.52,-0.17,-8.00,0.63,-7.54,0.91,-6.73,1.88,-4.44,2.01,-3.15,1.92,-1.50
2005-01-06 03:00,1.72,-14.85,1.76,-15.67,3.69,-16.86,0.40,-15.67,1.16,-15.43,1.05,-14.74,1.12,-13.57,0.59,-12.89,-1.32,-12.11,-0.41,-11.31,0.02,-11.70,-0.97,-12.22,-1.17,-11.55,-1.95,-10.74,-1.61,-10.11,-0.24,-9.48,0.71,-8.15,0.25,-6.62,0.93,-5.78,0.77,-4.57,0.56,-2.86
2005-01-06 04:00,-3.73,-6.26,-2.86,-6.73,-1.90,-10.20,-2.53,-6.11,-3.04,-6.47,-2.78,-5.97,-2.05,-5.96,-1.11,-6.61,-0.91,-5.92,-1.63,-5.62,-2.12,-5.04,-3.03,-3.44,-2.13,-2.95,-1.39,-2.62,-1.09,-3.26,-2.10,-4.09,-3.48,-5.04,-2.54,-4.33,-1.81,-2.96,-1.60,-1.95,-1.41,-0.53
2005-01-06 05:00,2.26,5.61,2.88,5.27,4.02,-2.54,-0.52,4.44,-1.01,5.02,-1.30,4.94,-2.00,4.83,-2.32,4.52,-1.33,3.67,0.20,3.09,1.00,3.23,2.65,3.32,3.46,4.41,4.16,5.56,3.85,5.88,4.77,7.31,5.99,6.75,6.71,6.44,6.67,6.22,6.73,7.08,4.83,7.12
2005-01-06 06:00,12.11,-1.63,10.64,-1.97,6.48,-6.49,10.14,0.69,9.69,0.45,9.57,0.84,8.85,0.82,8.87,0.41,8.73,-0.16,8.93,0.54,9.18,0.40,9.33,-0.08,8.94,-1.87,8.87,-1.99,10.10,-0.89,11.91,-0.65,14.01,-0.32,15.16,1.39,15.96,0.49,15.04,0.73,14.69,2.92
2005-01-06 07:00,5.80,1.56,5.12,-0.00,2.40,-7.84,5.13,2.72,4.95,2.98,5.12,2.40,4.62,1.31,2.41,1.36,2.02,0.93,1.08,1.27,1.62,1.54,1.70,2.30,4.10,1.99,6.36,0.06,6.90,-1.03,8.10,-1.18,9.42,-1.72,9.26,-2.92,8.05,-3.08,6.75,-2.23,5.99,-0.78
2005-01-06 08:00,5.87,5.77,5.49,4.61,3.56,-1.73,5.88,4.72,4.69,5.20,4.36,6.25,3.87,7.87,3.02,9.29,2.92,10.62,2.87,9.77,2.44,9.11,2.32,7.82,1.96,6.25,2.68,4.58,3.52,4.21,5.09,3.54,6.09,3.01,6.69,2.05,5.64,1.72,5.52,1.79,6.22,2.22
2005-01-06 09:00,-1.63,5.67,-1.86,5.39,-5.38,-1.23,-3.20,6.03,-3.06,5.55,-3.53,6.76,-4.28,8.52,-5.30,10.82,-6.98,12.92,-8.24,11.91,-9.34,11.05,-7.66,8.64,-7.22,5.84,-5.75,5.14,-4.35,4.32,-3.85,4.05,-3.91,1.84,-4.87,-0.13,-4.77,-0.83,-3.83,-0.13,-3.47,1.45
2005-01-06 10:00,2.70,-0.64,2.23,-1.83,-2.41,-4.08,0.76,-1.13,0.45,-1.12,-0.28,0.23,-0.97,1.80,-3.92,2.57,-4.76,3.25,-5.49,3.24,-5.06,3.89,-4.25,3.30,-4.28,2.04,-4.70,0.66,-4.95,0.47,-2.97,-2.58,-1.50,-2.97,-0.74,-4.41,0.11,-4.46,0.12,-4.15,-0.06,-2.21
2005-01-06 11:00,-6.66,-9.67,-6.68,-8.94,-7.85,-11.60,-7.90,-9.73,-9.34,-9.13,-10.21,-8.35,-11.16,-8.64,-12.93,-8.34,-13.87,-6.96,-14.08,-6.61,-14.78,-6.72,-14.52,-6.53,-13.08,-5.78,-11.66,-5.97,-12.69,-6.70,-13.35,-9.00,-11.75,-9.45,-9.73,-10.92,-9.21,-12.96,-7.99,-12.17,-7.37,-10.10
2005-01-06 12:00,-3.95,-11.35,-4.25,-10.71,-5.03,-7.50,-5.29,-10.40,-5.71,-10.74,-7.15,-11.49,-10.09,-11.14,-11.10,-11.24,-11.81,-10.62,-11.67,-11.41,-12.03,-10.58,-12.71,-9.74,-13.53,-9.78,-12.60,-9.08,-11.41,-8.51,-10.34,-8.60,-10.56,-7.20,-9.76,-8.11,-6.60,-10.91,-6.72,-10.84,-5.31,-8.63
2005-01-06 13:00,-2.62,-3.73,-3.35,-4.79,-6.28,-4.43,-2.72,-6.16,-2.53,-6.11,-2.55,-5.69,-2.78,-5.97,-3.48,-6.40,-2.87,-7.05,-3.65,-6.87,-3.68,-6.77,-3.86,-6.51,-4.53,-7.76,-3.38,-9.82,-2.88,-10.08,-1.75,-9.32,-1.08,-10.47,-0.98,-11.49,-0.68,-11.81,-0.49,-13.12,0.62,-12.99
2005-01-06 14:00,-0.98,-5.01,-1.59,-5.40,-4.01,-4.68,-2.02,-6.05,-1.92,-6.03,-1.54,-5.91,-0.60,-6.25,-0.67,-6.37,-0.34,-6.06,-0.26,-6.67,-0.02,-7.12,0.16,-7.37,0.18,-6.74,-0.56,-6.03,-0.03,-6.39,0.92,-7.46,1.04,-7.84,1.88,-8.21,2.56,-8.73,3.17,-8.65,4.21,-8.65
2005-01-06 15:00,1.65,-6.08,1.70,-6.59,-1.90,-6.44,1.82,-8.33,1.64,-7.76,2.10,-7.20,2.41,-7.21,2.29,-7.14,2.84,-6.56,2.49,-6.77,1.82,-6.97,1.41,-6.99,0.53,-6.53,-0.18,-7.27,-0.17,-6.95,0.27,-7.03,0.40,-8.14,0.47,-9.06,0.75,-10.33,-0.58,-11.78,0.76,-11.38
2005-01-06 16:00,-6.18,-7.85,-6.35,-8.32,-9.38,-5.59,-6.32,-8.41,-5.73,-7.92,-5.15,-8.48,-4.45,-8.37,-5.14,-8.16,-5.06,-7.72,-5.70,-8.02,-6.57,-8.28,-7.34,-8.83,-8.31,-8.40,-8.80,-7.81,-9.51,-8.56,-7.67,-9.46,-6.06,-10.64,-5.78,-10.86,-6.36,-9.99,-5.38,-8.75,-4.60,-6.84
2005-01-06 17:00,8.71,-3.51,6.86,-2.61,-5.71,-1.85,7.99,-2.89,9.32,-3.11,9.01,-4.15,8.40,-4.23,8.62,-4.27,8.40,-4.23,8.22,-3.97,7.84,-4.09,7.66,-3.51,7.97,-3.84,8.84,-4.30,8.62,-4.58,8.43,-4.32,8.43,-4.32,9.61,-2.71,11.22,-1.80,12.38,-0.82,12.57,-0.76
2005-01-06 18:00,-1.34,-5.53,-1.95,-5.93,-7.48,-4.27,-1.83,-6.00,-1.03,-5.86,-1.48,-6.10,-1.23,-6.23,-1.35,-5.85,-1.19,-6.01,-1.46,-6.51,-2.06,-6.59,-1.73,-7.33,-1.35,-7.21,-1.06,-6.81,-0.01,-8.16,0.34,-7.95,1.60,-6.94,2.59,-6.42,3.48,-4.90,3.38,-3.88,3.38,-2.84
2005-01-06 19:00,3.22,-5.39,0.73,-6.16,-9.12,-6.76,1.49,-7.28,2.33,-6.61,3.54,-6.45,5.10,-6.07,5.39,-5.67,5.23,-4.78,4.44,-4.60,4.25,-4.66,4.73,-4.20,5.11,-4.40,5.53,-5.42,6.63,-6.97,7.10,-8.18,9.36,-9.06,9.04,-9.05,9.59,-8.78,9.93,-7.52,8.27,-5.84
2005-01-06 20:00,-0.29,3.68,-1.27,3.48,-8.76,3.70,-0.98,3.88,-0.70,3.66,0.29,4.17,0.67,3.97,1.15,3.07,0.65,1.98,1.04,1.05,0.69,1.15,0.22,1.01,0.56,0.90,-0.72,0.30,-0.68,0.52,-0.15,0.16,0.65,-0.74,1.34,-1.99,1.12,-1.96,1.55,-2.35,1.47,-2.06
2005-01-06 21:00,3.42,2.51,3.51,3.90,-5.07,5.98,4.35,1.85,5.01,1.74,3.77,1.68,4.10,0.62,3.68,0.29,4.18,0.02,3.24,0.36,2.79,0.12,2.04,0.52,0.33,-0.74,-0.65,-1.98,-0.82,-2.45,0.29,-2.32,1.68,-0.01,2.49,1.08,3.52,1.49,3.67,1.33,3.41,1.15
2005-01-06 22:00,-5.44,5.13,-5.39,5.99,-6.97,9.47,-5.15,5.22,-6.15,5.75,-5.25,5.19,-5.41,5.04,-5.77,4.51,-5.37,4.22,-4.92,4.46,-4.68,3.69,-4.41,3.46,-5.06,3.89,-4.98,3.29,-5.80,1.89,-7.96,0.39,-8.49,-0.61,-8.67,-1.40,-8.60,-1.27,-7.38,-1.52,-5.96,-0.36
2005-01-06 23:00,-7.25,3.53,-7.49,2.62,-11.65,-0.53,-6.69,0.67,-7.30,0.28,-7.42,0.66,-7.39,0.56,-7.97,0.07,-7.97,0.07,-8.29,-0.24,-7.59,0.19,-7.89,-0.53,-7.35,-1.62,-8.43,-3.21,-9.24,-5.34,-9.75,-6.43,-10.17,-7.08,-9.96,-6.08,-10.58,-4.38,-10.83,-2.89,-8.13,-2.49
2005-01-07 00:00,-14.82,-0.77,-13.94,-2.28,-11.45,-2.56,-14.36,-2.61,-14.97,-3.01,-16.15,-4.31,-16.78,-4.29,-16.88,-4.64,-16.99,-4.98,-17.47,-5.45,-17.49,-6.08,-18.02,-7.08,-17.39,-7.09,-17.04,-8.24,-16.44,-8.48,-16.41,-9.62,-16.55,-10.18,-15.66,-10.01,-14.81,-9.02,-15.74,-12.13,-14.04,-7.43
2005-01-07 01:00,-1.86,-6.22,-1.70,-6.06,-8.79,-3.73,-1.93,-7.70,-2.86,-8.09,-2.56,-8.73,-2.51,-9.24,-2.72,-8.88,-2.52,-9.55,-2.14,-11.11,-1.98,-10.96,-1.74,-12.45,-2.52,-13.63,-2.61,-14.39,-2.23,-15.63,-2.22,-16.68,-2.59,-17.52,-2.64,-18.06,-1.98,-17.13,0.35,-15.16,-1.61,-13.88
2005-01-07 02:00,-5.84,-8.27,-6.22,-8.39,-11.25,-7.31,-6.29,-8.83,-7.27,-9.75,-7.44,-10.22,-7.39,-10.73,-7.75,-11.26,-8.66,-12.37,-9.07,-12.39,-9.50,-13.05,-10.38,-12.90,-10.91,-13.58,-10.67,-14.35,-10.14,-14.71,-10.76,-16.78,-10.88,-18.80,-11.50,-20.87,-11.16,-21.29,-10.44,-21.60,-10.90,-21.11
2005-01-07 03:00,-5.85,-4.82,-5.63,-4.86,-3.13,-7.55,-5.61,-4.22,-7.03,-5.39,-7.52,-5.85,-7.39,-5.92,-7.91,-6.29,-8.03,-6.22,-8.49,-6.78,-8.17,-6.79,-8.30,-6.72,-8.42,-6.65,-7.82,-6.57,-7.67,-7.05,-7.21,-7.54,-7.46,-8.77,-7.23,-9.53,-7.33,-10.92,-6.83,-12.55,-5.38,-13.88
2005-01-07 04:00,-6.04,-6.24,-5.26,-6.73,0.63,-15.39,-6.91,-6.82,-6.09,-6.78,-6.84,-6.69,-5.64,-6.53,-5.23,-7.87,-6.03,-6.97,-6.74,-6.35,-7.57,-5.35,-8.19,-5.01,-9.12,-4.36,-9.05,-3.92,-9.34,-4.32,-9.67,-4.63,-9.33,-5.05,-13.09,-9.86,-8.87,-7.94,-8.32,-9.03,-7.22,-9.21
2005-01-07 05:00,-1.14,-2.44,0.64,-2.42,10.15,-7.56,1.25,-0.66,0.29,-0.96,0.06,-0.19,-0.96,-0.61,-1.44,-0.75,-1.25,-0.70,-2.46,-0.86,-2.67,-0.50,-2.26,-0.48,-2.29,-0.39,-2.77,-0.53,-2.74,-0.63,-3.12,-0.74,-2.91,-1.10,-2.97,-2.27,-2.25,-3.93,-0.44,-5.05,-4.12,-0.21
2005-01-07 06:00,-6.30,-10.50,-4.75,-10.45,1.05,-11.29,-6.97,-9.35,-7.15,-8.77,-6.55,-9.01,-6.34,-8.00,-6.64,-7.36,-6.73,-7.39,-6.95,-7.04,-7.43,-7.50,-7.84,-7.52,-8.15,-7.20,-7.71,-7.27,-7.82,-6.57,-7.94,-6.51,-6.70,-7.17,-7.03,-6.75,-5.42,-7.93,-5.08,-8.35,-3.85,-8.29
2005-01-07 07:00,-8.12,-3.21,-8.75,-3.20,-3.18,-8.08,-8.94,-1.90,-8.68,-1.71,-7.66,-1.29,-6.80,-1.35,-6.63,-1.92,-6.05,-1.43,-5.98,-1.31,-5.93,-0.45,-6.17,-1.36,-5.94,-1.08,-7.03,-1.63,-7.19,-1.78,-7.83,-1.77,-8.22,-1.15,-7.74,-0.69,-7.56,-1.27,-6.45,-2.50,-3.79,-2.31
2005-01-07 08:00,-14.95,-5.83,-14.09,-5.56,-11.90,-5.21,-14.93,-5.19,-14.74,-5.13,-15.54,-5.27,-15.90,-4.76,-15.88,-5.17,-15.16,-5.47,-14.66,-5.74,-14.91,-5.61,-15.53,-4.96,-15.71,-4.70,-15.64,-4.26,-15.52,-4.64,-15.21,-4.96,-15.34,-4.90,-14.65,-5.11,-13.83,-6.42,-12.98,-7.84,-11.17,-8.96
2005-01-07 09:00,-16.60,2.98,-16.08,2.30,-12.06,2.17,-16.68,3.26,-15.81,2.80,-15.96,2.96,-15.55,2.98,-14.52,2.67,-14.32,3.05,-13.60,2.43,-13.71,3.13,-13.97,2.94,-13.59,3.06,-12.57,3.48,-12.74,4.05,-12.92,4.63,-13.17,4.44,-12.84,3.71,-12.68,3.86,-13.07,2.38,-11.61,0.01
2005-01-07 10:00,-13.59,-2.06,-13.69,-1.05,-13.70,-0.00,-13.67,-1.46,-14.02,-1.67,-13.32,-1.56,-12.83,-1.83,-12.97,-2.40,-12.80,-2.24,-12.50,-2.57,-12.33,-2.10,-11.66,-2.21,-11.88,-1.85,-11.44,-0.88,-9.40,-0.05,-7.50,-0.10,-7.93,0.29,-7.37,-0.16,-7.11,0.34,-7.54,0.73,-7.23,-0.64
2005-01-07 11:00,-9.10,1.71,-8.55,1.99,-0.55,3.49,-8.97,1.96,-9.02,2.16,-9.06,1.94,-8.75,1.93,-8.69,1.74,-8.49,2.11,-8.11,2.23,-7.86,2.09,-6.97,1.95,-5.99,3.19,-4.98,3.29,-4.88,3.32,-5.00,2.34,-5.11,1.68,-5.14,2.09,-5.13,1.05,-4.86,0.50,-6.03,0.56
2005-01-07 12:00,-15.19,-1.61,-13.89,-1.42,0.65,1.98,-13.78,-2.12,-15.44,-2.84,-16.54,-2.34,-16.61,-2.46,-16.26,-2.57,-15.79,-2.74,-14.89,-3.61,-14.31,-3.12,-14.11,-2.43,-12.97,-2.40,-12.68,-2.31,-12.89,-1.95,-12.22,-3.11,-11.34,-3.26,-11.65,-4.29,-10.79,-5.08,-9.44,-5.71,-8.84,-5.63
2005-01-07 13:00,-10.64,-3.15,-9.78,-3.93,4.57,-8.12,-11.88,-1.85,-12.74,-0.76,-12.57,0.76,-11.27,2.31,-10.63,2.29,-9.80,2.65,-10.24,2.72,-10.35,2.38,-11.21,3.16,-10.66,2.39,-10.60,2.51,-10.96,1.98,-11.67,1.24,-12.35,-0.64,-11.92,-2.39,-10.83,-4.25,-10.54,-5.21,-9.52,-5.11
2005-01-07 14:00,-8.96,-9.01,-8.60,-8.80,3.87,-5.82,-8.25,-8.59,-9.62,-7.54,-9.97,-7.75,-9.33,-7.45,-8.83,-6.36,-7.04,-5.71,-6.56,-5.56,-6.10,-4.69,-5.37,-4.67,-5.12,-3.76,-4.54,-3.27,-4.20,-3.69,-4.59,-3.81,-4.95,-4.34,-5.24,-5.78,-4.88,-6.62,-4.31,-7.80,-3.60,-8.42
2005-01-07 15:00,-9.76,-10.83,-8.54,-10.04,1.69,-12.03,-10.29,-8.06,-13.43,-8.39,-13.34,-7.32,-12.84,-7.27,-12.80,-7.05,-12.13,-6.85,-11.25,-6.99,-10.39,-6.73,-9.56,-7.73,-8.51,-7.73,-7.24,-7.44,-6.48,-7.52,-5.56,-7.45,-5.73,-7.61,-6.27,-8.92,-6.89,-9.95,-6.95,-9.76,-6.39,-6.45
2005-01-07 16:00,-7.94,-12.68,-7.77,-13.25,-0.42,-10.59,-7.19,-11.71,-9.26,-12.45,-10.54,-12.74,-10.29,-12.87,-10.12,-12.72,-9.62,-11.62,-9.33,-11.22,-8.86,-10.03,-9.18,-10.34,-8.64,-10.38,-8.86,-10.34,-9.51,-10.96,-8.84,-11.80,-8.34,-12.38,-7.19,-13.07,-6.80,-14.00,-6.52,-14.23,-4.05,-14.10
2005-01-07 17:00,-1.26,-6.14,-1.31,-6.99,10.43,-6.75,-0.81,-2.13,-3.11,-2.83,-4.43,-5.01,-5.33,-4.45,-5.71,-4.25,-5.67,-4.03,-4.67,-3.20,-4.41,-3.02,-4.11,-2.30,-3.54,-2.44,-2.28,-2.47,-1.75,-2.83,-1.26,-3.42,-1.22,-4.56,-0.93,-4.47,-0.79,-4.95,-0.23,-5.40,1.63,-5.67
2005-01-07 18:00,7.33,-13.03,8.12,-13.20,15.98,-8.81,7.40,-12.59,5.59,-13.14,5.22,-13.67,5.03,-12.68,4.88,-11.16,4.07,-10.57,3.86,-10.22,2.70,-9.84,2.50,-8.86,2.54,-8.32,1.96,-8.81,2.04,-8.37,2.59,-8.83,3.69,-9.33,4.50,-9.60,5.58,-10.74,6.74,-11.43,7.96,-11.68
2005-01-07 19:00,-5.43,-7.20,-4.84,-7.44,6.46,-9.84,-2.77,-7.02,-1.06,-7.12,-1.36,-6.48,-2.29,-5.51,-3.62,-4.24,-4.20,-3.37,-4.17,-2.11,-4.52,-1.28,-4.64,-0.90,-3.91,-0.88,-3.13,-1.06,-2.26,-1.84,-0.47,-2.23,0.21,-1.71,0.54,-1.09,0.82,-0.27,1.00,-0.53,1.59,0.28
2005-01-07 20:00,10.96,-6.79,10.28,-7.63,8.67,-6.13,9.27,-8.77,7.23,-9.29,7.35,-8.31,6.76,-6.72,7.89,-3.23,8.19,-0.11,8.57,1.05,8.05,0.68,7.76,0.60,7.12,0.30,7.16,0.52,6.64,-0.17,7.92,-0.61,8.71,-0.79,10.00,-0.91,10.92,-0.84,12.18,-1.19,12.97,-2.41
2005-01-07 21:00,4.30,2.36,2.83,0.66,1.32,-7.75,3.14,3.05,2.79,3.88,3.43,4.18,3.41,4.91,3.02,5.84,2.23,5.70,1.68,6.47,1.23,7.28,1.13,8.29,0.68,8.37,1.00,8.36,1.82,8.08,1.99,7.51,2.52,7.15,3.31,5.93,7.93,-0.29,5.71,3.21,7.00,2.77
2005-01-07 22:00,-5.15,0.41,-2.15,1.22,2.75,-6.27,-3.15,1.76,-4.89,0.60,-5.73,-0.08,-6.28,0.70,-6.22,2.91,-5.36,4.53,-5.97,5.50,-6.06,5.78,-6.50,5.54,-7.32,5.81,-6.97,6.03,-7.23,6.89,-7.45,6.92,-7.94,6.15,-7.33,6.54,-6.72,4.53,-5.99,3.19,-4.47,2.29
2005-01-07 23:00,-0.98,3.88,-1.84,3.62,0.89,1.53,-1.59,4.53,-1.50,4.56,-2.76,3.55,-3.20,4.98,-4.19,5.83,-4.25,7.07,-3.46,8.25,-2.73,9.62,-1.96,10.17,-0.95,9.96,0.15,9.77,-0.26,9.75,1.33,10.34,1.38,10.88,1.30,11.48,2.42,10.88,2.96,10.84,3.22,9.98
2005-01-08 00:00,-4.74,-8.77,-4.74,-8.77,-3.23,-11.65,-5.26,-8.09,-5.61,-6.63,-5.45,-6.79,-5.14,-5.75,-5.16,-5.03,-5.51,-4.20,-6.17,-3.77,-6.12,-4.28,-5.59,-3.28,-5.04,-3.01,-4.68,-2.48,-2.88,-1.19,-2.49,-0.76,-1.51,0.48,-1.66,0.64,-1.15,1.01,-1.90,1.09,-3.03,0.33
2005-01-08 01:00,-14.33,-6.16,-14.19,-5.91,-11.20,-6.46,-16.11,-5.45,-15.85,-5.27,-15.40,-5.02,-15.68,-4.79,-16.59,-5.59,-16.00,-6.15,-15.85,-4.95,-15.81,-4.73,-15.46,-4.83,-14.67,-4.69,-13.92,-3.73,-13.72,-2.31,-13.13,-1.51,-11.43,-0.57,-9.73,-2.03,-8.76,-2.47,-8.99,-2.75,-8.81,-1.96
2005-01-08 02:00,-9.07,-13.44,-8.49,-13.26,-5.31,-15.11,-9.35,-13.53,-9.45,-13.56,-10.01,-13.10,-10.30,-12.14,-11.23,-12.53,-10.78,-12.29,-10.86,-13.05,-11.11,-11.55,-11.37,-12.05,-10.61,-11.82,-10.11,-11.04,-9.28,-10.68,-7.50,-8.99,-5.68,-8.43,-3.81,-8.07,-3.25,-8.52,-3.76,-8.57,-3.94,-8.32
2005-01-08 03:00,-19.05,-11.57,-18.32,-11.56,-11.67,-12.46,-18.50,-11.30,-18.52,-11.94,-18.65,-10.83,-18.99,-10.41,-19.63,-9.66,-20.48,-9.29,-18.73,-7.82,-17.26,-7.16,-15.84,-5.99,-15.26,-4.14,-15.40,-3.66,-15.43,-3.57,-15.50,-3.69,-13.98,-3.86,-13.51,-5.07,-11.99,-5.24,-12.44,-6.52,-13.16,-6.53
2005-01-08 04:00,-13.94,-10.85,-13.54,-10.10,-9.44,-9.47,-14.31,-9.29,-14.99,-8.77,-16.30,-7.91,-16.42,-7.84,-16.05,-8.04,-15.50,-7.77,-14.97,-7.82,-15.19,-6.74,-14.03,-7.11,-13.87,-6.96,-12.44,-6.84,-11.15,-8.01,-9.07,-8.63,-8.02,-9.35,-7.52,-9.93,-6.29,-9.87,-3.94,-9.68,-3.53,-9.65
2005-01-08 05:00,-11.87,-7.71,-10.70,-7.77,-6.78,-10.65,-11.20,-8.86,-11.47,-8.32,-11.49,-8.95,-11.42,-8.82,-11.74,-8.82,-12.34,-7.54,-12.34,-7.85,-12.13,-8.21,-12.19,-8.01,-10.73,-7.67,-9.40,-6.53,-8.77,-6.55,-8.17,-6.79,-6.40,-7.81,-4.46,-8.68,-3.71,-9.08,-2.66,-9.08,-2.07,-7.95
2005-01-08 06:00,-6.50,-4.39,-6.90,-4.10,-5.63,-5.17,-7.71,-3.51,-7.59,-3.89,-6.80,-3.75,-7.23,-3.05,-6.86,-2.20,-7.46,-2.28,-7.10,-1.75,-6.47,-2.08,-5.52,-1.79,-4.91,-1.71,-4.36,-2.17,-4.21,-2.65,-3.77,-2.72,-2.68,-4.58,-1.26,-6.14,-0.58,-6.66,1.72,-5.96,3.11,-4.70
2005-01-08 07:00,-5.68,-4.67,-7.08,-4.88,-5.23,-5.47,-6.62,-4.01,-7.26,-3.27,-7.48,-3.23,-7.84,-2.40,-7.68,-2.24,-7.37,-2.57,-7.51,-1.77,-7.14,-1.97,-6.38,-1.01,-5.76,-1.34,-4.58,-1.09,-3.57,-0.99,-3.32,-1.12,-2.67,-1.86,-1.64,-2.49,-1.37,-2.72,-0.39,-2.84,0.70,-3.66
2005-01-08 08:00,-7.27,1.54,-6.14,1.26,-4.84,0.09,-6.30,2.47,-5.84,3.02,-6.02,3.28,-5.77,3.47,-4.21,3.52,-4.41,3.15,-4.57,3.31,-3.90,3.51,-4.39,2.74,-4.41,2.10,-4.77,1.57,-4.45,1.57,-4.17,1.65,-2.94,1.40,-2.81,1.65,-1.00,1.89,0.09,2.43,1.03,3.14
2005-01-08 09:00,-5.36,3.17,-5.25,3.83,-5.56,2.80,-5.68,4.22,-5.83,4.70,-6.23,5.00,-6.37,4.75,-5.27,5.60,-5.45,4.50,-5.37,4.22,-4.68,3.69,-3.87,3.42,-5.24,2.79,-5.37,1.49,-6.53,1.87,-5.72,1.60,-4.44,1.88,-2.69,2.31,-2.06,2.30,-1.51,4.24,-0.48,4.66
2005-01-08 10:00,-6.64,3.93,-6.60,2.79,-7.31,3.73,-7.60,3.64,-7.79,4.62,-7.72,5.06,-7.83,5.45,-7.89,5.95,-8.83,6.29,-8.53,5.34,-8.42,4.96,-7.65,5.19,-6.16,5.44,-6.20,5.22,-5.19,5.00,-4.01,4.21,-4.70,3.06,-4.47,2.29,-4.41,0.74,-4.56,1.22,-3.73,0.22
2005-01-08 11:00,-7.80,0.54,-7.20,0.31,-6.68,-0.37,-6.75,-0.50,-6.23,-0.13,-5.46,0.42,-5.85,-0.01,-5.55,-0.65,-5.35,-1.32,-4.97,-1.52,-5.35,-1.32,-5.63,-0.05,-7.83,0.64,-8.72,1.83,-8.64,1.23,-7.53,1.04,-7.62,2.69,-8.51,2.52,-7.58,4.27,-7.64,5.51,-7.77,5.57
2005-01-08 12:00,-5.67,9.66,-4.66,7.04,-0.62,0.65,-5.42,4.72,-6.21,3.54,-6.13,2.62,-6.64,2.57,-7.04,3.18,-7.50,2.31,-6.33,2.25,-6.81,2.10,-7.51,1.99,-7.69,1.20,-9.28,0.93,-11.01,1.13,-12.11,2.68,-13.02,1.88,-12.71,2.60,-12.13,3.09,-11.43,3.51,-9.99,3.95
2005-01-08 13:00,-5.88,2.49,-6.13,1.58,-4.83,-0.95,-7.40,1.29,-7.80,1.90,-8.44,1.60,-8.70,1.10,-8.75,0.57,-7.92,-0.43,-7.18,-1.15,-7.63,-1.71,-7.21,-1.37,-7.54,-0.63,-8.68,0.69,-7.94,2.70,-7.86,3.14,-8.93,3.55,-9.56,3.56,-9.07,2.98,-8.21,2.93,-7.44,3.48
2005-01-08 14:00,-7.18,0.21,-6.33,-0.16,-5.21,1.65,-8.84,-0.51,-9.85,-0.61,-9.36,-1.19,-9.47,-1.85,-9.09,-4.14,-8.68,-4.12,-7.00,-3.08,-6.28,-2.03,-5.37,-0.91,-5.33,-1.73,-6.16,-2.09,-7.12,-2.70,-7.60,-2.85,-7.53,-2.72,-7.32,-3.07,-7.06,-2.89,-7.06,-3.94,-5.61,-4.22
2005-01-08 15:00,-8.35,-8.62,-8.01,-7.99,-6.40,-0.60,-7.71,-8.63,-8.12,-8.34,-7.28,-9.02,-6.39,-11.26,-5.88,-13.61,-4.67,-14.81,-3.93,-15.53,-2.64,-14.61,-1.19,-13.54,0.05,-11.80,-0.37,-11.09,-2.01,-12.22,-3.24,-13.01,-3.14,-12.99,-2.79,-12.77,-3.35,-12.32,-2.88,-12.80,-1.83,-13.52